{"data":{"norad_id":42811,"epoch":"2026-05-25T02:46:42.693024Z","epoch_age_seconds":58275,"freshness":"FRESH","line1":"1 42811U 17039J   26145.11577191  .00000011  00000+0 -31072-5 0  9996","line2":"2 42811  86.3987  34.7942 0002083  80.0921 280.0510 14.34217702466677","mean_motion":14.34217702,"eccentricity":0.0002083,"inclination_deg":86.3987,"raan_deg":34.7942,"arg_perigee_deg":80.0921,"mean_anomaly_deg":280.051,"bstar":-3.1072e-6,"rev_number":46667,"period_min":100.4031673847,"perigee_km":776.17675997385,"apogee_km":779.15786805107,"semimajor_km":7155.8043140125,"source":"CELESTRAK","updated_at":"2026-05-25T13:38:14.801490Z"}}